Regional Weather Roundup
Issued by NWS Sioux Falls, SD

Home | Current Version | Previous Version | Text Only | Print | Product List | Glossary On
Versions: 1 2 3 4 5 6 7 8 9 10 11 12 13 14 15 16 17 18 19 20 21 22 23 24 25 26 27 28 29 30 31 32 33 34 35 36 37 38 39 40 41 42 43 44 45 46 47 48 49 50
000
ASUS43 KFSD 170110
RWRFSD

WEATHER ROUNDUP FOR SE SOUTH DAKOTA/SW MINNESOTA/NW IOWA
NATIONAL WEATHER SERVICE SIOUX FALLS SD
700 PM CST SAT DEC 16 2017

NOTE: "FAIR" INDICATES FEW OR NO CLOUDS BELOW 12,000 FEET WITH NO
SIGNIFICANT WEATHER AND OR OBSTRUCTIONS TO VISIBILITY.


SDZ038>040-050-052>070-170200-
SOUTHEAST SOUTH DAKOTA

CITY           SKY/WX    TMP DP  RH WIND       PRES   REMARKS
BROOKINGS      CLOUDY    34  31  88 CALM      30.00R
CHAMBERLAIN    CLOUDY    38  34  85 N5        30.02R
HURON          CLOUDY    37  33  85 NE3       30.02R
MADISON        MOCLDY    34  34 100 N7        30.00R WCI  28
MITCHELL       PTCLDY    36  33  89 NE8       30.02R
SIOUX FALLS    PTCLDY    32  29  88 NE5       30.00R WCI  27
WINNER         CLOUDY    39  33  79 N8        30.01R
YANKTON        CLOUDY    36  31  82 MISG      30.01R
$$

MNZ071-072-080-081-089-090-097-098-170200-
SOUTHWEST MINNESOTA

CITY           SKY/WX    TMP DP  RH WIND       PRES   REMARKS
FAIRMONT       CLOUDY    30  27  88 N8        30.01R WCI  22
JACKSON        MOCLDY    28  25  86 NE5       30.00R WCI  23
LUVERNE        CLOUDY    32  28  86 N5        30.00R WCI  27
MARSHALL       CLOUDY    30  27  88 NE6       30.03R WCI  24
MONTEVIDEO     CLOUDY    28  25  86 E3        30.04R
PIPESTONE      CLOUDY    30  27  86 NE5       29.99R WCI  25
REDWOOD FALLS  CLOUDY    29  25  85 NE5       30.03R WCI  24
TRACY          CLOUDY    30  28  93 NE6       30.01R WCI  24
WINDOM           N/A     28  18  64 NE6       30.00R HAZE    WCI  22
WORTHINGTON    CLOUDY    30  27  88 N7        30.00R WCI  23
$$

IAZ001>003-012>014-020>022-031-032-NEZ013-014-SDZ071-170200-
NORTHWEST IOWA

CITY           SKY/WX    TMP DP  RH WIND       PRES   REMARKS
CHEROKEE       CLEAR     36  29  78 NE6       29.98R
ESTHERVILLE    CLOUDY    29  27  92 N8        30.00R WCI  21
LE MARS        CLEAR     34  28  80 NE8       29.99R WCI  27
ORANGE CITY    PTCLDY    37  32  81 NE7       29.99R
SHELDON        CLOUDY    32  28  86 NE7       29.98R WCI  26
SIOUX CITY     PTCLDY    37  30  75 NE8       29.98R
SPENCER        CLOUDY    28  24  85 N8        29.99R WCI  20
STORM LAKE     CLEAR     37  28  70 NE9       29.97R
$$

ABBREVIATIONS USED IN REMARKS
   TC - TEMPERATURE IN CELSIUS
  WCI - WIND CHILL INDEX
   HX - HEAT INDEX
  VSB - VISIBILITY





USA.gov is the U.S. government's official web portal to all federal, state and local government web resources and services.